[Iaude] MPEC L63: 2024 LE1 [a=1.31,e=0.25,i=15.8,H=26.4]
    mpec at cfa.harvard.edu 
    mpec at cfa.harvard.edu
       
    Thu Jun  6 07:47:19 EDT 2024
    
    
  
M.P.E.C. 2024-L63                                  Issued 2024 June 6, 11:45 UT
     The Minor Planet Electronic Circulars contain information on unusual
         minor planets, routine data on comets and natural satellites,
         and occasional editorial announcements.  They are published
    on behalf of Division F of the International Astronomical Union by the
          Minor Planet Center, Smithsonian Astrophysical Observatory,
                          Cambridge, MA 02138, U.S.A.
			  
             Prepared using the Tamkin Foundation Computer Network
                              MPC at CFA.HARVARD.EDU
            URL https://www.minorplanetcenter.net/    ISSN 1523-6714
                                    2024 LE1                                    
Observations:
     K24L01E*1C2024 06 05.29505215 06 00.010+01 45 50.00         19.90GVEL063G96
     K24L01E 1C2024 06 05.30020315 06 02.010+01 49 41.60               VEL063G96
     K24L01E 1C2024 06 05.31050115 06 06.060+01 57 23.30         19.64GVEL063G96
     K24L01E KC2024 06 05.32484415 06 11.790+02 08 09.20         19.96GVEL063I52
     K24L01E KC2024 06 05.32549315 06 12.028+02 08 38.54         19.36GVEL063I52
     K24L01E KC2024 06 05.32615515 06 12.287+02 09 08.21               VEL063I52
     K24L01E KC2024 06 05.32681915 06 12.571+02 09 38.05         20.05GVEL063I52
     K24L01E  C2024 06 05.33439215 06 14.920+02 15 11.06         19.1 GVEL063H01
     K24L01E  C2024 06 05.33835215 06 16.552+02 18 08.76         19.5 GVEL063H01
     K24L01E  C2024 06 05.34856015 06 20.830+02 25 48.65         19.4 GVEL063H01
     K24L01E  C2024 06 05.35555615 06 23.784+02 31 03.26         19.7 GVEL063H01
     K24L01E KC2024 06 05.38376115 06 36.371+02 52 22.69         19.97GVEL063I52
     K24L01E KC2024 06 05.38441615 06 36.677+02 52 52.72         19.51GVEL063I52
     K24L01E KC2024 06 05.38506815 06 36.940+02 53 21.84         19.43GVEL063I52
     K24L01E KC2024 06 05.38703115 06 37.832+02 54 50.08         19.52GVEL063I52
     K24L01E KB2024 06 05.62840 15 08 55.21 +05 57 23.8          19.6 GVEL063P13
     K24L01E KB2024 06 05.63211 15 08 56.71 +06 00 15.5          19.3 GVEL063P13
     K24L01E KB2024 06 05.63454 15 08 57.68 +06 02 06.5          19.2 GVEL063P13
     K24L01E KB2024 06 05.91665615 11 31.05 +09 37 55.3          19.8 GXEL063958
     K24L01E KB2024 06 05.93658915 11 39.57 +09 53 14.0          20.0 GXEL063958
     K24L01E 2C2024 06 05.95801315 11 53.656+10 11 06.18         20.0 GVEL063J04
     K24L01E 2C2024 06 05.95928415 11 54.181+10 12 04.89         19.4 GVEL063J04
     K24L01E 2C2024 06 05.96048415 11 54.649+10 13 00.17         19.6 GVEL063J04
     K24L01E KB2024 06 05.97037815 11 53.86 +10 19 06.1          20.2 GXEL063I93
     K24L01E KB2024 06 05.97766815 11 57.05 +10 24 41.8          19.8 GXEL063I93
     K24L01E KB2024 06 05.98507115 12 00.24 +10 30 22.4          20.0 GXEL063I93
     K24L01E KC2024 06 06.13467515 13 31.50 +12 25 48.7          20.4 GVEL063H21
     K24L01E KC2024 06 06.13644915 13 32.26 +12 27 10.5          20.1 GVEL063H21
     K24L01E KC2024 06 06.13807615 13 32.96 +12 28 25.6          20.4 GVEL063H21
     K24L01E KC2024 06 06.13970315 13 33.66 +12 29 40.5          20.2 GVEL063H21
     K24L01E !C2024 06 06.23385 15 14 24.10 +13 42 25.4          19.6 GVEL063673
     K24L01E !C2024 06 06.23555 15 14 24.81 +13 43 43.0                VEL063673
Observer details:
673 Table Mountain Observatory, Wrightwood.  Observer J. Pittichova.  1.0-m
    f/15 reflector + CCD.
958 Observatoire de Dax.  Observer P. Dupouy.  0.50-m f/4.5 Reflector + CMO.
G96 Mt. Lemmon Survey.  Observer G. J. Leonard.  Measurers T. Beuden, V. F.
    Carvajal, D. Fay, J. B. Fazekas, D. C. Fuls, A. R. Gibbs, A. D. Grauer, H.
    Groeller, J. K. Hogan, R. A. Kowalski, S. M. Larson, G. J. Leonard, D.
    Rankin, R. L. Seaman, F. C. Shelly, K. W. Wierzchos.  1.5-m reflector +
    10K CCD.
H01 Magdalena Ridge Observatory, Socorro.  Observers W. H. Ryan, E. V. Ryan.
    Measurer W. H. Ryan.  2.4-m f/8.9 Ritchey-Chretien + CCD.
H21 Astronomical Research Observatory, Westfield.  Observer R. Holmes.
    Measurers T. Linder, R. Holmes, L. Horn.  0.81-m f/4.0 astrograph + CCD.
I52 Steward Observatory, Mt. Lemmon Station.  Observer T. Beuden.  Measurers
    T. Beuden, V. F. Carvajal, D. Fay, J. B. Fazekas, D. C. Fuls, A. R. Gibbs,
    A. D. Grauer, H. Groeller, J. K. Hogan, R. A. Kowalski, S. M. Larson, G.
    J. Leonard, D. Rankin, R. L. Seaman, F. C. Shelly, K. W. Wierzchos.  1.0-m
    prime focus + CCD.
I93 St Pardon de Conques.  Observer F. Losse.  0.40-m f/3.7 reflector + CMO.
J04 ESA Optical Ground Station, Tenerife.  Observers D. Abreu, M. Micheli, F.
    Ocana, L. Conversi.  Measurers M. Micheli, R. Kresken, F. Ocana.
    1.0-m f/4.4 reflector + CCD.
P13 Baihuashan Observatory, Beijing.  Observers Z. Wang, B. Liu.  Measurer Z.
    Wang.  0.28-m f/2.2 reflector + CMO.
Orbital elements:
2024 LE1                                                 Earth MOID = 0.0221 AU
Epoch 2024 Mar. 31.0 TT = JDT 2460400.5                 Veres                   
M 290.56704              (2000.0)            P               Q                  
n   0.65747032     Peri.   44.72146     +0.43207655     +0.86361535             
a   1.3098411      Node   252.50117     -0.88475518     +0.35013090             
e   0.2524012      Incl.   15.80537     -0.17469438     +0.36273528             
P   1.50           H   26.41          G   0.15           U   8                  
Residuals in seconds of arc
240605 G96  0.3+  0.5-    240605 I52  0.8-  0.6-    240605 J04  0.3-  0.1-
240605 G96  0.0   0.3-    240605 I52  0.4-  0.1-    240605 I93  0.1-  0.6-
240605 G96  0.1-  1.3-    240605 I52  0.8-  0.4-    240605 I93  0.1+  0.5-
240605 I52  0.0   0.2-    240605 I52  0.3-  0.7-    240605 I93  0.5-  0.5-
240605 I52  0.3-  0.1-    240605 P13  0.4+  0.4-    240606 H21  0.1+  0.1+
240605 I52  0.5-  0.2-    240605 P13  0.1+  1.6+    240606 H21  0.0   0.1+
240605 I52  0.2-  0.2-    240605 P13  0.2-  1.4+    240606 H21  0.0   0.1+
240605 H01  0.1+  0.4+    240605 958  0.5+  0.2-    240606 H21  0.1-  0.2-
240605 H01  0.1-  0.1-    240605 958  0.6+  0.6-    240606 673  0.1-  1.1+
240605 H01  0.1+  0.2+    240605 J04  0.2-  0.0     240606 673  0.4-  0.4+
240605 H01  0.0   0.2-    240605 J04  0.1-  0.0
Ephemeris:
2024 LE1                 a,e,i = 1.31, 0.25, 16                  q = 0.9792
Date    TT    R. A. (2000) Decl.     Delta      r    Elong.  Phase     V
2024 05 07    13 53 23.4 -65 35 46   0.1769  1.1311   130.1    43.1    24.6
...
2024 05 22    14 02 08.1 -60 12 22   0.09031 1.0784   135.4    41.2    23.0
...
2024 05 30    14 26 35.7 -45 39 18   0.04756 1.0533   145.6    32.9    21.3
...
2024 06 05    15 03 40.8 -01 49 49   0.02583 1.0362   146.4    32.8    19.9
2024 06 06    15 12 14.0 +10 44 31   0.02515 1.0336   137.9    41.1    20.1
2024 06 07    15 21 38.2 +23 19 11   0.02574 1.0309   128.0    50.9    20.4
...
2024 06 13    16 39 43.4 +66 44 42   0.04679 1.0163    89.6    87.7    22.9
...
2024 06 21    19 15 30.1 +78 56 07   0.08760 1.0002    77.1    98.0    24.7
...
2024 07 06    22 41 01.7 +80 03 54   0.1652  0.9819    73.2    97.5    26.0
M. P. C. Staff               (C) Copyright 2024 MPC           M.P.E.C. 2024-L63
    
    
More information about the Iaude
mailing list